"Sample Date","Sample Time","Sensor Name","Sample Value","Units","Flow Rate","Sample Interval","Sample Volume","Laser Status","Number Channels","Micron Size 0","Counts/Channel 0","Micron Size 1","Counts/Channel 1","Micron Size 2","Counts/Channel 2","Micron Size 3","Counts/Channel 3","Micron Size 4","Counts/Channel 4","Micron Size 5","Counts/Channel 5","Micron Size 6","Counts/Channel 6","Micron Size 7","Counts/Channel 7","Micron Size 8","Counts/Channel 8","Micron Size 9","Counts/Channel 9","Micron Size 10","Counts/Channel 10","Micron Size 11","Counts/Channel 11","Micron Size 12","Counts/Channel 12","Micron Size 13","Counts/Channel 13","Micron Size 14","Counts/Channel 14","Micron Size 15","Counts/Channel 15","Micron Size 16","Counts/Channel 16","Micron Size 17","Counts/Channel 17","Micron Size 18","Counts/Channel 18","Micron Size 19","Counts/Channel 19","Micron Size 20","Counts/Channel 20","Micron Size 21","Counts/Channel 21","Micron Size 22","Counts/Channel 22","Micron Size 23","Counts/Channel 23","Micron Size 24","Counts/Channel 24","Micron Size 25","Counts/Channel 25","Micron Size 26","Counts/Channel 26","Micron Size 27","Counts/Channel 27","Micron Size 28","Counts/Channel 28","Micron Size 29","Counts/Channel 29","Micron Size 30","Counts/Channel 30","Micron Size 31","Counts/Channel 31"
"07/07/06","03:00:03","AMMA06",52822.000,"cc",28293.846,6.00,2829.385,1,6,0.100,27939.000,0.200,19499.000,0.300,3912.000,0.500,980.000,1.000,492.000,5.000,0
"07/07/06","03:00:09","AMMA06",53028.000,"cc",28308.895,6.00,2830.890,1,6,0.100,28422.000,0.200,19530.000,0.300,3776.000,0.500,812.000,1.000,488.000,5.000,0
"07/07/06","03:00:15","AMMA06",53210.000,"cc",28214.258,6.00,2821.426,1,6,0.100,28990.000,0.200,19646.000,0.300,3420.000,0.500,761.000,1.000,393.000,5.000,0
"07/07/06","03:00:21","AMMA06",51961.000,"cc",28358.604,6.00,2835.861,1,6,0.100,27624.000,0.200,19505.000,0.300,3518.000,0.500,849.000,1.000,465.000,5.000,0
"07/07/06","03:00:27","AMMA06",54640.000,"cc",28335.688,6.00,2833.569,1,6,0.100,28620.000,0.200,20086.000,0.300,4154.000,0.500,1168.000,1.000,612.000,5.000,0
"07/07/06","03:00:33","AMMA06",52341.000,"cc",28328.090,6.00,2832.809,1,6,0.100,27608.000,0.200,19792.000,0.300,3613.000,0.500,873.000,1.000,455.000,5.000,0
"07/07/06","03:00:39","AMMA06",50595.000,"cc",28330.484,6.00,2833.049,1,6,0.100,26973.000,0.200,19248.000,0.300,3363.000,0.500,640.000,1.000,371.000,5.000,0
"07/07/06","03:00:45","AMMA06",50925.000,"cc",28321.889,6.00,2832.189,1,6,0.100,26897.000,0.200,19432.000,0.300,3462.000,0.500,735.000,1.000,399.000,5.000,0
"07/07/06","03:00:51","AMMA06",49537.000,"cc",28321.053,6.00,2832.106,1,6,0.100,26308.000,0.200,19117.000,0.300,3205.000,0.500,566.000,1.000,341.000,5.000,0
"07/07/06","03:00:57","AMMA06",50942.000,"cc",28364.256,6.00,2836.426,1,6,0.100,26970.000,0.200,19328.000,0.300,3493.000,0.500,741.000,1.000,409.000,5.000,1.000
"07/07/06","03:01:03","AMMA06",50530.000,"cc",28314.385,6.00,2831.439,1,6,0.100,26683.000,0.200,19454.000,0.300,3379.000,0.500,660.000,1.000,354.000,5.000,0
"07/07/06","03:01:09","AMMA06",53490.000,"cc",28288.035,6.00,2828.804,1,6,0.100,27909.000,0.200,20138.000,0.300,3953.000,0.500,1009.000,1.000,481.000,5.000,0
"07/07/06","03:01:15","AMMA06",51693.000,"cc",28285.141,6.00,2828.514,1,6,0.100,27122.000,0.200,19912.000,0.300,3502.000,0.500,729.000,1.000,428.000,5.000,0
"07/07/06","03:01:21","AMMA06",51215.000,"cc",28340.756,6.00,2834.076,1,6,0.100,26858.000,0.200,19803.000,0.300,3476.000,0.500,692.000,1.000,386.000,5.000,0
"07/07/06","03:01:27","AMMA06",51254.000,"cc",28325.277,6.00,2832.528,1,6,0.100,26814.000,0.200,19888.000,0.300,3487.000,0.500,678.000,1.000,387.000,5.000,0
"07/07/06","03:01:33","AMMA06",51734.000,"cc",28327.801,6.00,2832.780,1,6,0.100,26925.000,0.200,19830.000,0.300,3718.000,0.500,802.000,1.000,459.000,5.000,0
"07/07/06","03:01:39","AMMA06",51195.000,"cc",28317.184,6.00,2831.719,1,6,0.100,26712.000,0.200,19750.000,0.300,3612.000,0.500,704.000,1.000,417.000,5.000,0
"07/07/06","03:01:45","AMMA06",49918.000,"cc",28314.580,6.00,2831.458,1,6,0.100,26109.000,0.200,19610.000,0.300,3345.000,0.500,537.000,1.000,317.000,5.000,0
"07/07/06","03:01:51","AMMA06",50476.000,"cc",28279.773,6.00,2827.978,1,6,0.100,26191.000,0.200,19891.000,0.300,3432.000,0.500,616.000,1.000,346.000,5.000,0
"07/07/06","03:01:57","AMMA06",50131.000,"cc",28279.600,6.00,2827.960,1,6,0.100,26105.000,0.200,19798.000,0.300,3355.000,0.500,543.000,1.000,330.000,5.000,0
"07/07/06","03:02:03","AMMA06",50198.000,"cc",28363.041,6.00,2836.304,1,6,0.100,26000.000,0.200,19758.000,0.300,3494.000,0.500,589.000,1.000,357.000,5.000,0
"07/07/06","03:02:09","AMMA06",50620.000,"cc",28315.086,6.00,2831.509,1,6,0.100,25979.000,0.200,20126.000,0.300,3474.000,0.500,628.000,1.000,412.000,5.000,1.000
"07/07/06","03:02:15","AMMA06",50386.000,"cc",28322.672,6.00,2832.267,1,6,0.100,25965.000,0.200,20072.000,0.300,3378.000,0.500,610.000,1.000,361.000,5.000,0
"07/07/06","03:02:21","AMMA06",57626.000,"cc",28322.594,6.00,2832.260,1,6,0.100,28728.000,0.200,21663.000,0.300,5022.000,0.500,1460.000,1.000,753.000,5.000,0
"07/07/06","03:02:27","AMMA06",53714.000,"cc",28307.193,6.00,2830.720,1,6,0.100,27340.000,0.200,20658.000,0.300,4207.000,0.500,1010.000,1.000,499.000,5.000,0
"07/07/06","03:02:33","AMMA06",53167.000,"cc",28301.170,6.00,2830.117,1,6,0.100,27012.000,0.200,20603.000,0.300,4191.000,0.500,899.000,1.000,462.000,5.000,0
"07/07/06","03:02:39","AMMA06",53396.000,"cc",28282.547,6.00,2828.255,1,6,0.100,27247.000,0.200,20549.000,0.300,4170.000,0.500,936.000,1.000,494.000,5.000,0
"07/07/06","03:02:45","AMMA06",53508.000,"cc",28367.426,6.00,2836.743,1,6,0.100,27345.000,0.200,20577.000,0.300,4083.000,0.500,993.000,1.000,510.000,5.000,0
"07/07/06","03:02:51","AMMA06",57228.000,"cc",28346.576,6.00,2834.658,1,6,0.100,29250.000,0.200,21291.000,0.300,4734.000,0.500,1323.000,1.000,630.000,5.000,0
"07/07/06","03:02:57","AMMA06",51974.000,"cc",28356.629,6.00,2835.663,1,6,0.100,27296.000,0.200,20038.000,0.300,3560.000,0.500,672.000,1.000,408.000,5.000,0
"07/07/06","03:03:03","AMMA06",50832.000,"cc",28304.408,6.00,2830.441,1,6,0.100,26614.000,0.200,19647.000,0.300,3575.000,0.500,649.000,1.000,346.000,5.000,1.000
"07/07/06","03:03:09","AMMA06",49964.000,"cc",28287.529,6.00,2828.753,1,6,0.100,25898.000,0.200,19815.000,0.300,3337.000,0.500,587.000,1.000,326.000,5.000,1.000
"07/07/06","03:03:15","AMMA06",49825.000,"cc",28326.002,6.00,2832.600,1,6,0.100,26048.000,0.200,19523.000,0.300,3350.000,0.500,582.000,1.000,322.000,5.000,0
"07/07/06","03:03:21","AMMA06",50590.000,"cc",28287.576,6.00,2828.758,1,6,0.100,26200.000,0.200,19741.000,0.300,3588.000,0.500,685.000,1.000,376.000,5.000,0
"07/07/06","03:03:27","AMMA06",50721.000,"cc",28345.887,6.00,2834.589,1,6,0.100,26610.000,0.200,19683.000,0.300,3406.000,0.500,656.000,1.000,366.000,5.000,0
"07/07/06","03:03:33","AMMA06",50056.000,"cc",28332.133,6.00,2833.213,1,6,0.100,26275.000,0.200,19380.000,0.300,3449.000,0.500,593.000,1.000,359.000,5.000,0
"07/07/06","03:03:39","AMMA06",49570.000,"cc",28317.242,6.00,2831.724,1,6,0.100,26139.000,0.200,19244.000,0.300,3264.000,0.500,584.000,1.000,339.000,5.000,0
"07/07/06","03:03:45","AMMA06",50110.000,"cc",28292.979,6.00,2829.298,1,6,0.100,26350.000,0.200,19596.000,0.300,3282.000,0.500,535.000,1.000,347.000,5.000,0
"07/07/06","03:03:51","AMMA06",52054.000,"cc",28289.490,6.00,2828.949,1,6,0.100,27149.000,0.200,19747.000,0.300,3826.000,0.500,865.000,1.000,467.000,5.000,0
"07/07/06","03:03:57","AMMA06",50653.000,"cc",28323.789,6.00,2832.379,1,6,0.100,26442.000,0.200,19511.000,0.300,3530.000,0.500,767.000,1.000,403.000,5.000,0
"07/07/06","03:04:03","AMMA06",51090.000,"cc",28358.363,6.00,2835.836,1,6,0.100,26825.000,0.200,19449.000,0.300,3595.000,0.500,815.000,1.000,406.000,5.000,0
"07/07/06","03:04:09","AMMA06",52476.000,"cc",28297.324,6.00,2829.733,1,6,0.100,27337.000,0.200,19816.000,0.300,3861.000,0.500,962.000,1.000,500.000,5.000,0
"07/07/06","03:04:15","AMMA06",50659.000,"cc",28304.430,6.00,2830.443,1,6,0.100,26618.000,0.200,19444.000,0.300,3484.000,0.500,724.000,1.000,389.000,5.000,0
"07/07/06","03:04:21","AMMA06",50363.000,"cc",28324.234,6.00,2832.424,1,6,0.100,26606.000,0.200,19416.000,0.300,3381.000,0.500,605.000,1.000,355.000,5.000,0
"07/07/06","03:04:27","AMMA06",50939.000,"cc",28287.455,6.00,2828.746,1,6,0.100,26841.000,0.200,19584.000,0.300,3445.000,0.500,686.000,1.000,383.000,5.000,0
"07/07/06","03:04:33","AMMA06",50777.000,"cc",28327.598,6.00,2832.760,1,6,0.100,26702.000,0.200,19333.000,0.300,3555.000,0.500,762.000,1.000,425.000,5.000,0
"07/07/06","03:04:39","AMMA06",55232.000,"cc",28284.799,6.00,2828.480,1,6,0.100,29289.000,0.200,20288.000,0.300,4053.000,0.500,1056.000,1.000,546.000,5.000,0
"07/07/06","03:04:45","AMMA06",52079.000,"cc",28349.527,6.00,2834.953,1,6,0.100,27942.000,0.200,19638.000,0.300,3360.000,0.500,729.000,1.000,410.000,5.000,0
"07/07/06","03:04:51","AMMA06",50590.000,"cc",28306.803,6.00,2830.680,1,6,0.100,26976.000,0.200,19178.000,0.300,3344.000,0.500,698.000,1.000,394.000,5.000,0
"07/07/06","03:04:57","AMMA06",54751.000,"cc",28304.315,6.00,2830.432,1,6,0.100,28068.000,0.200,20482.000,0.300,4321.000,0.500,1270.000,1.000,610.000,5.000,0
"07/07/06","03:05:03","AMMA06",52907.000,"cc",28341.391,6.00,2834.139,1,6,0.100,27730.000,0.200,19770.000,0.300,3804.000,0.500,1068.000,1.000,535.000,5.000,0
"07/07/06","03:05:09","AMMA06",51353.000,"cc",28319.727,6.00,2831.973,1,6,0.100,27318.000,0.200,19420.000,0.300,3463.000,0.500,742.000,1.000,410.000,5.000,0
"07/07/06","03:05:15","AMMA06",50365.000,"cc",28342.672,6.00,2834.267,1,6,0.100,26492.000,0.200,19359.000,0.300,3397.000,0.500,702.000,1.000,415.000,5.000,0
"07/07/06","03:05:21","AMMA06",49594.000,"cc",28323.926,6.00,2832.393,1,6,0.100,26382.000,0.200,18960.000,0.300,3323.000,0.500,601.000,1.000,328.000,5.000,0
"07/07/06","03:05:27","AMMA06",53801.000,"cc",28272.875,6.00,2827.288,1,6,0.100,29083.000,0.200,19896.000,0.300,3547.000,0.500,824.000,1.000,451.000,5.000,0
"07/07/06","03:05:33","AMMA06",51893.000,"cc",28327.719,6.00,2832.772,1,6,0.100,27578.000,0.200,19607.000,0.300,3472.000,0.500,794.000,1.000,442.000,5.000,0
"07/07/06","03:05:39","AMMA06",50382.000,"cc",28305.473,6.00,2830.547,1,6,0.100,26826.000,0.200,19306.000,0.300,3199.000,0.500,671.000,1.000,380.000,5.000,0
"07/07/06","03:05:45","AMMA06",50248.000,"cc",28348.412,6.00,2834.841,1,6,0.100,26597.000,0.200,19205.000,0.300,3421.000,0.500,645.000,1.000,380.000,5.000,0
"07/07/06","03:05:51","AMMA06",50481.000,"cc",28335.691,6.00,2833.569,1,6,0.100,26847.000,0.200,19079.000,0.300,3419.000,0.500,770.000,1.000,366.000,5.000,0
"07/07/06","03:05:57","AMMA06",51890.000,"cc",28297.002,6.00,2829.700,1,6,0.100,27112.000,0.200,19484.000,0.300,3846.000,0.500,954.000,1.000,494.000,5.000,0
"07/07/06","03:06:03","AMMA06",52077.000,"cc",28327.367,6.00,2832.737,1,6,0.100,27295.000,0.200,19642.000,0.300,3710.000,0.500,933.000,1.000,497.000,5.000,0
"07/07/06","03:06:09","AMMA06",53013.000,"cc",28322.690,6.00,2832.269,1,6,0.100,27759.000,0.200,19766.000,0.300,3915.000,0.500,1035.000,1.000,538.000,5.000,0
"07/07/06","03:06:15","AMMA06",52781.000,"cc",28276.266,6.00,2827.627,1,6,0.100,28223.000,0.200,19584.000,0.300,3646.000,0.500,863.000,1.000,465.000,5.000,0
"07/07/06","03:06:21","AMMA06",51861.000,"cc",28321.520,6.00,2832.152,1,6,0.100,27414.000,0.200,19585.000,0.300,3659.000,0.500,755.000,1.000,448.000,5.000,0
"07/07/06","03:06:27","AMMA06",51886.000,"cc",28288.740,6.00,2828.874,1,6,0.100,27322.000,0.200,19519.000,0.300,3647.000,0.500,895.000,1.000,503.000,5.000,0
"07/07/06","03:06:33","AMMA06",53420.000,"cc",28332.623,6.00,2833.263,1,6,0.100,28184.000,0.200,19735.000,0.300,3968.000,0.500,1010.000,1.000,523.000,5.000,0
"07/07/06","03:06:39","AMMA06",50439.000,"cc",28337.096,6.00,2833.710,1,6,0.100,26791.000,0.200,19115.000,0.300,3387.000,0.500,754.000,1.000,392.000,5.000,0
"07/07/06","03:06:45","AMMA06",50335.000,"cc",28272.166,6.00,2827.217,1,6,0.100,26870.000,0.200,19066.000,0.300,3359.000,0.500,692.000,1.000,348.000,5.000,0
"07/07/06","03:06:51","AMMA06",51095.000,"cc",28332.484,6.00,2833.249,1,6,0.100,27180.000,0.200,19182.000,0.300,3505.000,0.500,804.000,1.000,424.000,5.000,0
"07/07/06","03:06:57","AMMA06",49548.000,"cc",28330.023,6.00,2833.002,1,6,0.100,26679.000,0.200,18684.000,0.300,3195.000,0.500,605.000,1.000,385.000,5.000,0
"07/07/06","03:07:03","AMMA06",50198.000,"cc",28349.717,6.00,2834.972,1,6,0.100,26928.000,0.200,19006.000,0.300,3233.000,0.500,656.000,1.000,375.000,5.000,0
"07/07/06","03:07:09","AMMA06",49742.000,"cc",28298.930,6.00,2829.893,1,6,0.100,26768.000,0.200,18977.000,0.300,3074.000,0.500,606.000,1.000,317.000,5.000,0
"07/07/06","03:07:15","AMMA06",49618.000,"cc",28279.451,6.00,2827.945,1,6,0.100,26733.000,0.200,18756.000,0.300,3150.000,0.500,608.000,1.000,371.000,5.000,0
"07/07/06","03:07:21","AMMA06",50133.000,"cc",28339.164,6.00,2833.917,1,6,0.100,27146.000,0.200,18727.000,0.300,3203.000,0.500,659.000,1.000,398.000,5.000,0
"07/07/06","03:07:27","AMMA06",49433.000,"cc",28341.238,6.00,2834.124,1,6,0.100,26576.000,0.200,18729.000,0.300,3159.000,0.500,644.000,1.000,325.000,5.000,0
"07/07/06","03:07:33","AMMA06",52415.000,"cc",28324.811,6.00,2832.481,1,6,0.100,27782.000,0.200,19435.000,0.300,3800.000,0.500,939.000,1.000,459.000,5.000,0
"07/07/06","03:07:39","AMMA06",50810.000,"cc",28263.350,6.00,2826.335,1,6,0.100,27155.000,0.200,19073.000,0.300,3407.000,0.500,769.000,1.000,406.000,5.000,0
"07/07/06","03:07:45","AMMA06",51286.000,"cc",28291.004,6.00,2829.101,1,6,0.100,27342.000,0.200,19203.000,0.300,3500.000,0.500,815.000,1.000,426.000,5.000,0
"07/07/06","03:07:51","AMMA06",53496.000,"cc",28364.285,6.00,2836.429,1,6,0.100,28583.000,0.200,19463.000,0.300,3947.000,0.500,1012.000,1.000,491.000,5.000,0
"07/07/06","03:07:57","AMMA06",52717.000,"cc",28276.686,6.00,2827.669,1,6,0.100,28181.000,0.200,19507.000,0.300,3648.000,0.500,893.000,1.000,488.000,5.000,0
"07/07/06","03:08:03","AMMA06",51286.000,"cc",28335.639,6.00,2833.564,1,6,0.100,27232.000,0.200,19272.000,0.300,3491.000,0.500,867.000,1.000,424.000,5.000,0
"07/07/06","03:08:09","AMMA06",57561.000,"cc",28300.213,6.00,2830.022,1,6,0.100,31796.000,0.200,20398.000,0.300,3872.000,0.500,959.000,1.000,536.000,5.000,0
"07/07/06","03:08:15","AMMA06",52736.000,"cc",28336.039,6.00,2833.604,1,6,0.100,28700.000,0.200,19527.000,0.300,3335.000,0.500,758.000,1.000,415.000,5.000,1.000
"07/07/06","03:08:21","AMMA06",51796.000,"cc",28299.486,6.00,2829.949,1,6,0.100,28049.000,0.200,19179.000,0.300,3389.000,0.500,747.000,1.000,432.000,5.000,0
"07/07/06","03:08:27","AMMA06",49554.000,"cc",28333.043,6.00,2833.304,1,6,0.100,26908.000,0.200,18653.000,0.300,3035.000,0.500,627.000,1.000,331.000,5.000,0
"07/07/06","03:08:33","AMMA06",49098.000,"cc",28346.363,6.00,2834.637,1,6,0.100,26362.000,0.200,18614.000,0.300,3149.000,0.500,610.000,1.000,363.000,5.000,0
"07/07/06","03:08:39","AMMA06",48508.000,"cc",28264.945,6.00,2826.495,1,6,0.100,26081.000,0.200,18433.000,0.300,3120.000,0.500,568.000,1.000,306.000,5.000,0
"07/07/06","03:08:45","AMMA06",49270.000,"cc",28319.481,6.00,2831.948,1,6,0.100,26452.000,0.200,18729.000,0.300,3122.000,0.500,618.000,1.000,349.000,5.000,0
"07/07/06","03:08:51","AMMA06",48643.000,"cc",28321.484,6.00,2832.149,1,6,0.100,26277.000,0.200,18438.000,0.300,3038.000,0.500,571.000,1.000,319.000,5.000,0
"07/07/06","03:08:57","AMMA06",49310.000,"cc",28308.414,6.00,2830.842,1,6,0.100,26362.000,0.200,18822.000,0.300,3146.000,0.500,629.000,1.000,351.000,5.000,0
"07/07/06","03:09:03","AMMA06",50185.000,"cc",28319.354,6.00,2831.936,1,6,0.100,26647.000,0.200,19156.000,0.300,3274.000,0.500,738.000,1.000,370.000,5.000,0
"07/07/06","03:09:09","AMMA06",49717.000,"cc",28364.100,6.00,2836.410,1,6,0.100,26431.000,0.200,19015.000,0.300,3274.000,0.500,629.000,1.000,368.000,5.000,0
"07/07/06","03:09:15","AMMA06",49607.000,"cc",28303.256,6.00,2830.326,1,6,0.100,26358.000,0.200,19112.000,0.300,3288.000,0.500,523.000,1.000,326.000,5.000,0
"07/07/06","03:09:21","AMMA06",50408.000,"cc",28325.133,6.00,2832.513,1,6,0.100,26720.000,0.200,19205.000,0.300,3409.000,0.500,694.000,1.000,380.000,5.000,0
"07/07/06","03:09:27","AMMA06",51429.000,"cc",28357.338,6.00,2835.734,1,6,0.100,26962.000,0.200,19649.000,0.300,3610.000,0.500,802.000,1.000,406.000,5.000,0
"07/07/06","03:09:33","AMMA06",49861.000,"cc",28298.565,6.00,2829.857,1,6,0.100,26176.000,0.200,19362.000,0.300,3386.000,0.500,578.000,1.000,359.000,5.000,0
"07/07/06","03:09:39","AMMA06",50079.000,"cc",28321.834,6.00,2832.184,1,6,0.100,26200.000,0.200,19305.000,0.300,3475.000,0.500,698.000,1.000,401.000,5.000,0
"07/07/06","03:09:45","AMMA06",49901.000,"cc",28267.898,6.00,2826.790,1,6,0.100,26155.000,0.200,19328.000,0.300,3428.000,0.500,613.000,1.000,377.000,5.000,0
"07/07/06","03:09:51","AMMA06",48917.000,"cc",28312.061,6.00,2831.206,1,6,0.100,25566.000,0.200,19248.000,0.300,3307.000,0.500,502.000,1.000,294.000,5.000,0
"07/07/06","03:09:57","AMMA06",49108.000,"cc",28355.592,6.00,2835.559,1,6,0.100,25678.000,0.200,19158.000,0.300,3357.000,0.500,573.000,1.000,342.000,5.000,0
"07/07/06","03:10:03","AMMA06",48472.000,"cc",28343.834,6.00,2834.384,1,6,0.100,25397.000,0.200,19136.000,0.300,3135.000,0.500,525.000,1.000,279.000,5.000,0
"07/07/06","03:10:09","AMMA06",48383.000,"cc",28298.981,6.00,2829.898,1,6,0.100,25127.000,0.200,19111.000,0.300,3278.000,0.500,538.000,1.000,329.000,5.000,0
"07/07/06","03:10:15","AMMA06",50380.000,"cc",28318.705,6.00,2831.871,1,6,0.100,26011.000,0.200,19660.000,0.300,3590.000,0.500,752.000,1.000,367.000,5.000,0
"07/07/06","03:10:21","AMMA06",51223.000,"cc",28289.623,6.00,2828.962,1,6,0.100,26163.000,0.200,19619.000,0.300,4011.000,0.500,934.000,1.000,496.000,5.000,0
"07/07/06","03:10:27","AMMA06",49587.000,"cc",28359.561,6.00,2835.956,1,6,0.100,25614.000,0.200,19392.000,0.300,3484.000,0.500,683.000,1.000,414.000,5.000,0
"07/07/06","03:10:33","AMMA06",50721.000,"cc",28327.256,6.00,2832.726,1,6,0.100,26201.000,0.200,19530.000,0.300,3749.000,0.500,812.000,1.000,429.000,5.000,0
"07/07/06","03:10:39","AMMA06",50143.000,"cc",28290.856,6.00,2829.086,1,6,0.100,25664.000,0.200,19731.000,0.300,3633.000,0.500,724.000,1.000,391.000,5.000,0
"07/07/06","03:10:45","AMMA06",50147.000,"cc",28300.418,6.00,2830.042,1,6,0.100,25746.000,0.200,19746.000,0.300,3569.000,0.500,687.000,1.000,399.000,5.000,0
"07/07/06","03:10:51","AMMA06",49989.000,"cc",28316.631,6.00,2831.663,1,6,0.100,25481.000,0.200,19732.000,0.300,3683.000,0.500,684.000,1.000,409.000,5.000,0
"07/07/06","03:10:57","AMMA06",53920.000,"cc",28322.322,6.00,2832.232,1,6,0.100,27167.000,0.200,20608.000,0.300,4512.000,0.500,1076.000,1.000,557.000,5.000,0
"07/07/06","03:11:03","AMMA06",51810.000,"cc",28320.059,6.00,2832.006,1,6,0.100,26475.000,0.200,20086.000,0.300,3938.000,0.500,845.000,1.000,466.000,5.000,0
"07/07/06","03:11:09","AMMA06",50272.000,"cc",28361.022,6.00,2836.102,1,6,0.100,25845.000,0.200,19589.000,0.300,3708.000,0.500,693.000,1.000,437.000,5.000,0
"07/07/06","03:11:15","AMMA06",49236.000,"cc",28300.301,6.00,2830.030,1,6,0.100,25480.000,0.200,19399.000,0.300,3455.000,0.500,547.000,1.000,355.000,5.000,0
"07/07/06","03:11:21","AMMA06",49382.000,"cc",28315.943,6.00,2831.595,1,6,0.100,25631.000,0.200,19398.000,0.300,3411.000,0.500,585.000,1.000,357.000,5.000,0
"07/07/06","03:11:27","AMMA06",49137.000,"cc",28321.055,6.00,2832.106,1,6,0.100,25617.000,0.200,19246.000,0.300,3372.000,0.500,555.000,1.000,347.000,5.000,0
"07/07/06","03:11:33","AMMA06",48700.000,"cc",28326.250,6.00,2832.625,1,6,0.100,25288.000,0.200,19284.000,0.300,3236.000,0.500,541.000,1.000,351.000,5.000,0
"07/07/06","03:11:39","AMMA06",48924.000,"cc",28295.865,6.00,2829.587,1,6,0.100,25490.000,0.200,19279.000,0.300,3238.000,0.500,571.000,1.000,346.000,5.000,0
"07/07/06","03:11:45","AMMA06",53394.000,"cc",28289.195,6.00,2828.920,1,6,0.100,27361.000,0.200,20121.000,0.300,4227.000,0.500,1101.000,1.000,584.000,5.000,0
"07/07/06","03:11:51","AMMA06",50167.000,"cc",28314.379,6.00,2831.438,1,6,0.100,25820.000,0.200,19507.000,0.300,3659.000,0.500,733.000,1.000,448.000,5.000,0
"07/07/06","03:11:57","AMMA06",52440.000,"cc",28318.926,6.00,2831.893,1,6,0.100,26959.000,0.200,19910.000,0.300,4009.000,0.500,1051.000,1.000,511.000,5.000,0
"07/07/06","03:12:03","AMMA06",51059.000,"cc",28333.598,6.00,2833.360,1,6,0.100,26561.000,0.200,19552.000,0.300,3718.000,0.500,800.000,1.000,428.000,5.000,0
"07/07/06","03:12:09","AMMA06",51299.000,"cc",28320.268,6.00,2832.027,1,6,0.100,26571.000,0.200,19576.000,0.300,3805.000,0.500,876.000,1.000,471.000,5.000,0
"07/07/06","03:12:15","AMMA06",50720.000,"cc",28287.361,6.00,2828.736,1,6,0.100,26081.000,0.200,19707.000,0.300,3698.000,0.500,796.000,1.000,438.000,5.000,0
"07/07/06","03:12:21","AMMA06",50050.000,"cc",28355.848,6.00,2835.585,1,6,0.100,26047.000,0.200,19316.000,0.300,3539.000,0.500,725.000,1.000,423.000,5.000,0
"07/07/06","03:12:27","AMMA06",50634.000,"cc",28339.078,6.00,2833.908,1,6,0.100,26344.000,0.200,19409.000,0.300,3665.000,0.500,805.000,1.000,411.000,5.000,0
"07/07/06","03:12:33","AMMA06",50033.000,"cc",28337.654,6.00,2833.766,1,6,0.100,26044.000,0.200,19438.000,0.300,3470.000,0.500,695.000,1.000,386.000,5.000,0
"07/07/06","03:12:39","AMMA06",49555.000,"cc",28292.676,6.00,2829.268,1,6,0.100,26158.000,0.200,18939.000,0.300,3374.000,0.500,693.000,1.000,391.000,5.000,0
"07/07/06","03:12:45","AMMA06",48674.000,"cc",28291.295,6.00,2829.130,1,6,0.100,25498.000,0.200,19034.000,0.300,3265.000,0.500,552.000,1.000,325.000,5.000,0
"07/07/06","03:12:51","AMMA06",48708.000,"cc",28284.617,6.00,2828.462,1,6,0.100,25628.000,0.200,19071.000,0.300,3131.000,0.500,558.000,1.000,320.000,5.000,0
"07/07/06","03:12:57","AMMA06",48594.000,"cc",28315.121,6.00,2831.512,1,6,0.100,25472.000,0.200,19093.000,0.300,3183.000,0.500,520.000,1.000,326.000,5.000,0
"07/07/06","03:13:03","AMMA06",49096.000,"cc",28361.197,6.00,2836.120,1,6,0.100,25846.000,0.200,19001.000,0.300,3309.000,0.500,602.000,1.000,338.000,5.000,0
"07/07/06","03:13:09","AMMA06",48594.000,"cc",28315.053,6.00,2831.505,1,6,0.100,25511.000,0.200,18958.000,0.300,3147.000,0.500,607.000,1.000,371.000,5.000,0
"07/07/06","03:13:15","AMMA06",48562.000,"cc",28277.135,6.00,2827.714,1,6,0.100,25683.000,0.200,18749.000,0.300,3231.000,0.500,572.000,1.000,327.000,5.000,0
"07/07/06","03:13:21","AMMA06",49334.000,"cc",28270.971,6.00,2827.097,1,6,0.100,25916.000,0.200,19011.000,0.300,3297.000,0.500,734.000,1.000,376.000,5.000,0
"07/07/06","03:13:27","AMMA06",50076.000,"cc",28345.590,6.00,2834.559,1,6,0.100,26167.000,0.200,19242.000,0.300,3441.000,0.500,812.000,1.000,414.000,5.000,0
"07/07/06","03:13:33","AMMA06",51043.000,"cc",28368.729,6.00,2836.873,1,6,0.100,26518.000,0.200,19398.000,0.300,3727.000,0.500,890.000,1.000,510.000,5.000,0
"07/07/06","03:13:39","AMMA06",49260.000,"cc",28304.828,6.00,2830.483,1,6,0.100,26230.000,0.200,18814.000,0.300,3208.000,0.500,652.000,1.000,356.000,5.000,0
"07/07/06","03:13:45","AMMA06",49241.000,"cc",28289.402,6.00,2828.940,1,6,0.100,26125.000,0.200,18853.000,0.300,3273.000,0.500,631.000,1.000,359.000,5.000,0
"07/07/06","03:13:51","AMMA06",48371.000,"cc",28325.594,6.00,2832.560,1,6,0.100,25923.000,0.200,18446.000,0.300,3111.000,0.500,527.000,1.000,364.000,5.000,0
"07/07/06","03:13:57","AMMA06",49190.000,"cc",28278.188,6.00,2827.819,1,6,0.100,25964.000,0.200,18977.000,0.300,3238.000,0.500,649.000,1.000,362.000,5.000,0
"07/07/06","03:14:03","AMMA06",50690.000,"cc",28338.574,6.00,2833.858,1,6,0.100,26902.000,0.200,19138.000,0.300,3385.000,0.500,792.000,1.000,473.000,5.000,0
"07/07/06","03:14:09","AMMA06",49754.000,"cc",28315.658,6.00,2831.566,1,6,0.100,26462.000,0.200,18959.000,0.300,3255.000,0.500,716.000,1.000,361.000,5.000,1.000
"07/07/06","03:14:15","AMMA06",49209.000,"cc",28324.848,6.00,2832.485,1,6,0.100,26191.000,0.200,18678.000,0.300,3279.000,0.500,678.000,1.000,383.000,5.000,0